Victoria, British Columbia

9:04 PM PDT on August 20, 2017 (GMT -0700)
Victoria International

Weather History for CYYJ - February, 2013

Change the Weather History Date:

Wednesday, February 6, 2013

  Actual Average Record
Temperature  
Mean Temperature 44 °F -  
Max Temperature 48 °F 48 °F 56 °F (2015)
Min Temperature 40 °F 34 °F 23 °F (2014)
Degree Days  
Heating Degree Days 22    
Moisture  
Dew Point 40 °F    
Average Humidity 81    
Maximum Humidity 87    
Minimum Humidity 61    
Precipitation  
Precipitation 0.08 in 0.12 in - ()
Sea Level Pressure  
Sea Level Pressure 29.90 in    
Wind  
Wind Speed 8 mph ()    
Max Wind Speed 22 mph    
Max Gust Speed 32 mph    
Visibility 17.2 miles    
Events Rain    
Averages and records for this station are not official NWS values.
T = Trace of Precipitation, MM = Missing Value Source: Averaged Metar Reports

Daily Weather History Graph

Daily Weather History Graph

Search for Another Location

Airport or City:

Trip Planner

Search our weather history database for the weather conditions in past years. The results will help you decide how hot, cold, wet, or windy it might be!

Date:

Astronomy

Feb. 06, 2013 Rise Set
Actual Time 7:35 AM PST 5:20 PM PST
Civil Twilight 7:02 AM PST 5:54 PM PST
Nautical Twilight 6:24 AM PST 6:31 PM PST
Astronomical Twilight 5:48 AM PST 7:08 PM PST
Moon 4:34 AM PST (2/6) 1:35 PM PST (2/6)
Length of Visible Light 10h 51m
Length of Day
9h 45m
Waning Crescent, 16% of the Moon is Illuminated
Feb 6
Waning Crescent
Feb 9
New
Feb 17
First Quarter
Feb 25
Full
Mar 4
Last Quarter

Hourly Weather History & Observations

Time (PST) Temp. Windchill Dew Point Humidity Pressure Visibility Wind Dir Wind Speed Gust Speed Precip Events Conditions
12:00 AM 42.8 °F 37.0 °F 39.2 °F 87% 29.88 in 20.0 mi SE 10.4 mph - N/A   Mostly Cloudy
12:26 AM 42.8 °F 37.5 °F - N/A% - 20.0 mi South 9.2 mph - N/A Rain Light Rain Showers
12:48 AM 42.8 °F 38.0 °F - N/A% - 20.0 mi SSE 8.1 mph - N/A   Mostly Cloudy
1:00 AM 42.8 °F 36.6 °F 39.2 °F 87% 29.90 in 20.0 mi South 11.5 mph - N/A Rain Light Rain Showers
1:55 AM 44.6 °F 39.2 °F - N/A% - 20.0 mi South 10.4 mph 17.3 mph N/A   Mostly Cloudy
2:00 AM 42.8 °F 38.6 °F 37.4 °F 81% 29.92 in 20.0 mi South 6.9 mph 17.3 mph N/A   Mostly Cloudy
2:51 AM 42.8 °F 37.0 °F - N/A% - 20.0 mi South 10.4 mph - N/A Rain Light Rain Showers
3:00 AM 42.8 °F 36.6 °F 39.2 °F 87% 29.93 in 20.0 mi South 11.5 mph 17.3 mph N/A Rain Light Rain Showers
3:20 AM 42.8 °F 37.0 °F - N/A% - 20.0 mi South 10.4 mph - N/A   Mostly Cloudy
4:00 AM 43 °F - 39 °F 79% 29.95 in 19 mi South 5.8 mph - - Rain Light Rain Showers
4:00 AM 42.8 °F 38.6 °F 39.2 °F 87% 29.95 in 20.0 mi SSE 6.9 mph - N/A   Overcast
4:10 AM 42.8 °F 39.3 °F - N/A% - 20.0 mi SSW 5.8 mph - N/A Rain Light Rain Showers
4:18 AM 42.8 °F 39.3 °F - N/A% - 15.0 mi SW 5.8 mph - N/A Rain Rain Showers
4:24 AM 42.8 °F 37.5 °F - N/A% - 15.0 mi SSW 9.2 mph - N/A Rain Light Rain Showers
5:00 AM 42.8 °F 41.1 °F 39.2 °F 87% 29.96 in 15.0 mi SW 3.5 mph - N/A Rain Light Rain Showers
5:23 AM 42.8 °F 39.3 °F - N/A% - 12.0 mi WSW 5.8 mph - N/A Rain Rain
5:36 AM 42.8 °F 41.1 °F - N/A% - 12.0 mi South 3.5 mph - N/A Rain Light Rain
6:00 AM 42.8 °F 41.1 °F 37.4 °F 81% 29.96 in 15.0 mi SW 3.5 mph - N/A Rain Light Rain
6:17 AM 42.8 °F - - N/A% - 15.0 mi SSE 2.3 mph - N/A   Overcast
7:00 AM 41.0 °F - 37.4 °F 87% 29.97 in 20.0 mi West 2.3 mph - N/A   Mostly Cloudy
7:49 AM 41.0 °F 38.0 °F - N/A% - 20.0 mi SSE 4.6 mph - N/A Rain Light Rain
8:00 AM 42.8 °F 41.1 °F 39.2 °F 87% 29.98 in 20.0 mi SSE 3.5 mph - N/A   Mostly Cloudy
9:00 AM 42.8 °F 36.6 °F 39.2 °F 87% 29.98 in 20.0 mi SSE 11.5 mph - N/A   Mostly Cloudy
10:00 AM 45 °F - 42 °F 84% 29.99 in 1 mi ESE 6.9 mph - -   Partly Cloudy
10:00 AM 44.6 °F 41.4 °F 41.0 °F 87% 29.99 in 20.0 mi ESE 5.8 mph - N/A   Mostly Cloudy
11:00 AM 44.6 °F 40.2 °F 41.0 °F 87% 29.98 in 15.0 mi SE 8.1 mph - N/A   Overcast
12:00 PM 46.4 °F 42.4 °F 41.0 °F 81% 29.96 in 20.0 mi SE 8.1 mph - N/A   Overcast
1:00 PM 46.4 °F 44.3 °F 39.2 °F 76% 29.95 in 20.0 mi East 4.6 mph - N/A   Overcast
2:00 PM 46.4 °F 41.9 °F 41.0 °F 81% 29.94 in 15.0 mi ESE 9.2 mph - N/A   Mostly Cloudy
2:14 PM 46.4 °F 43.5 °F - N/A% - 15.0 mi ESE 5.8 mph - N/A Rain Light Rain
2:48 PM 46.4 °F 41.5 °F - N/A% - 15.0 mi East 10.4 mph - N/A   Overcast
3:00 PM 46.4 °F 42.4 °F 41.0 °F 81% 29.91 in 15.0 mi East 8.1 mph - N/A   Overcast
4:00 PM 46 °F - 40 °F 74% 29.90 in 15 mi SE 11.5 mph - -   Partly Cloudy
4:00 PM 46.4 °F 40.7 °F 41.0 °F 81% 29.90 in 15.0 mi SE 12.7 mph - N/A   Overcast
5:00 PM 44.6 °F 40.2 °F 41.0 °F 87% 29.87 in 15.0 mi ESE 8.1 mph - N/A   Overcast
6:00 PM 46.4 °F 40.1 °F 41.0 °F 81% 29.85 in 15.0 mi SE 15.0 mph 24.2 mph N/A   Overcast
7:00 PM 46.4 °F 39.2 °F 41.0 °F 81% 29.83 in 15.0 mi SE 18.4 mph 29.9 mph N/A   Overcast
8:00 PM 46.4 °F 39.2 °F 39.2 °F 76% 29.80 in 15.0 mi SE 18.4 mph 27.6 mph N/A   Overcast
9:00 PM 46.4 °F 39.2 °F 39.2 °F 76% 29.77 in 20.0 mi SE 18.4 mph 25.3 mph N/A   Overcast
10:00 PM 47 °F - 38 °F 61% 29.75 in 19 mi SE 20.7 mph - -   Overcast
10:00 PM 46.4 °F 38.5 °F 37.4 °F 71% 29.75 in 20.0 mi SE 21.9 mph 32.2 mph N/A   Overcast
11:00 PM 48.2 °F - 37.4 °F 66% 29.73 in 20.0 mi SE 18.4 mph 31.1 mph N/A   Mostly Cloudy